Location: Austin
(30.3000°N, 97.7500°W)
Time: 05:53:06
(UTC-06:00)

OAO 3 Rocket - Pass Details

Date: 05 February 2026
Orbit: 613 x 661 km, 35.0° (Epoch: 14 February)

Event Time Altitude Azimuth Distance (km) Brightness Sun altitude
Exits shadow 05:28:15 51° 6° (N) 775 3.5 -24.2°
Drops below altitude 10° 05:32:24 10° 68° (ENE) 1,961 6.5 -23.4°
Sets 05:34:47 0° 73° (ENE) 2,865 7.6 -22.8°
